sat.trackr.live / text

‹ back to catalog

STARLINK-6167

NORAD 57126 · 2023-090AB

PAYLOAD ACTIVE UNKNOWN

§ Identity

Operator
Country
US
Launch date
2023-06-23
Launch site
AFETR
Launch vehicle
Mass (kg)
RCS (m²)

Purposes: comms

External: N2YO · Heavens-Above · Gunter

§ Orbital elements

Epoch: 2026-09-20T10:48:43.625952Z

Period
94.27 min
Inclination
43.0046°
Eccentricity
0.0001135
Mean motion
15.27571976 rev/d
Perigee alt
482.3 km
Apogee alt
483.9 km
Semi-major
6,861.2 km
B*
1.4554e-5
RAAN
262.0553°
Arg perigee
298.9341°
Mean anomaly
61.1397°
Rev number
18,011

§ Raw data

STARLINK-61671 57126U 23090AB  26263.45050493  .00000138  00000+0  14554-4 0  99982 57126  43.0046 262.0553 0001135 298.9341  61.1397 15.27571976180117

JSON: /api/v1/satellites/57126 · /tle

For live sub-satellite position, see the globe view (requires WebGL).

§ Visibility from observer

Set your observer location to see the next 7 days of passes ≥ 10°. The values pass through the URL so the page stays shareable.

No JS? Fill the form by hand. The geolocation button needs JavaScript.